Medicine Lodge, KS

4:15 PM CST on February 23, 2017 (GMT -0600)
Medicine Lodge

Weather History for KP28 - December, 2012

Change the Weather History Date:

Thursday, December 13, 2012

  Actual Average Record
Temperature  
Mean Temperature 48 °F 35 °F  
Max Temperature 63 °F 46 °F 81 °F (1921)
Min Temperature 32 °F 23 °F -7 °F (1961)
Degree Days  
Heating Degree Days 17 30  
Month to date heating degree days 287 372  
Since 1 July heating degree days 1023 1230  
Cooling Degree Days 0 0  
Month to date cooling degree days 0 0  
Year to date cooling degree days 2258 1770  
Moisture  
Dew Point 21 °F    
Average Humidity 40    
Maximum Humidity 59    
Minimum Humidity 20    
Precipitation  
Precipitation 0.00 in 0.03 in 1.63 in (2015)
Month to date precipitation 0.00 0.39  
Year to date precipitation 17.92 26.61  
Snow  
Snow 0.00 in 0.10 in - ()
Month to date snowfall 0.0 1.2  
Since 1 July snowfall 0.0 1.4  
Snow Depth 0.00 in    
Sea Level Pressure  
Sea Level Pressure 30.04 in    
Wind  
Wind Speed 10 mph (SSE)    
Max Wind Speed 18 mph    
Max Gust Speed 23 mph    
T = Trace of Precipitation, MM = Missing Value Source: NWS Daily Summary

Daily Weather History Graph

Daily Weather History Graph

Search for Another Location

Airport or City:

Trip Planner

Search our weather history database for the weather conditions in past years. The results will help you decide how hot, cold, wet, or windy it might be!

Date:

Astronomy

Dec. 13, 2012 Rise Set
Actual Time 7:40 AM CST 5:17 PM CST
Civil Twilight 7:11 AM CST 5:46 PM CST
Nautical Twilight 6:38 AM CST 6:19 PM CST
Astronomical Twilight 6:06 AM CST 6:50 PM CST
Moon 7:50 AM CST (12/13) 6:01 PM CST (12/13)
Length of Visible Light 10h 35m
Length of Day
9h 37m
New Moon, 0% of the Moon is Illuminated
Dec 13
New Moon
Dec 19
First Quarter
Dec 28
Full
Jan 4
Last Quarter
Jan 11
New

Hourly Weather History & Observations

Time (CST) Temp. Windchill Dew Point Humidity Pressure Visibility Wind Dir Wind Speed Gust Speed Precip Events Conditions
12:56 AM 37.9 °F 30.9 °F 18.0 °F 45% 30.04 in - SE 10.4 mph - N/A   Unknown
1:56 AM 36.0 °F 28.0 °F 18.0 °F 48% 30.03 in - SE 11.5 mph - N/A   Unknown
2:56 AM 35.1 °F 27.4 °F 18.0 °F 50% 30.03 in - SE 10.4 mph - N/A   Unknown
3:56 AM 35.1 °F 27.9 °F 19.0 °F 52% 30.03 in - SSE 9.2 mph - N/A   Unknown
4:56 AM 35.1 °F 29.3 °F 19.0 °F 52% 30.03 in - SE 6.9 mph - N/A   Unknown
5:56 AM 33.1 °F 27.7 °F 19.0 °F 56% 30.05 in - SE 5.8 mph - N/A   Unknown
6:56 AM 33.1 °F 25.5 °F 19.9 °F 59% 30.06 in - SSE 9.2 mph - N/A   Unknown
7:56 AM 32.0 °F 25.6 °F 19.9 °F 61% 30.06 in - SSE 6.9 mph - N/A   Unknown
8:56 AM 37.0 °F 28.9 °F 21.0 °F 52% 30.07 in - South 12.7 mph - N/A   Unknown
9:56 AM 39.9 °F 33.4 °F 21.0 °F 47% 30.09 in - South 10.4 mph - N/A   Unknown
10:56 AM 46.0 °F 40.2 °F 21.0 °F 37% 30.09 in - South 12.7 mph - N/A   Unknown
11:56 AM 52.0 °F - 19.9 °F 28% 30.05 in - SSW 9.2 mph - N/A   Unknown
12:56 PM 55.9 °F - 21.0 °F 26% 30.03 in - SSE 9.2 mph - N/A   Unknown
1:56 PM 59.0 °F - 19.9 °F 22% 30.01 in - South 11.5 mph 17.3 mph N/A   Unknown
2:56 PM 62.1 °F - 21.0 °F 21% 29.98 in - South 12.7 mph 20.7 mph N/A   Unknown
3:56 PM 63.0 °F - 21.0 °F 20% 29.98 in - South 15.0 mph - N/A   Unknown
4:56 PM 60.1 °F - 23.0 °F 24% 29.99 in - SE 8.1 mph - N/A   Unknown
5:56 PM 54.0 °F - 23.0 °F 30% 30.01 in - SE 10.4 mph - N/A   Unknown
6:56 PM 52.0 °F - 24.1 °F 34% 30.03 in - SSE 9.2 mph - N/A   Unknown
7:56 PM 50.0 °F - 25.0 °F 38% 30.04 in - SE 9.2 mph - N/A   Unknown
8:56 PM 48.0 °F - 25.0 °F 41% 30.04 in - South 8.1 mph - N/A   Unknown
9:56 PM 45.0 °F 40.1 °F 25.0 °F 46% 30.05 in - SSE 9.2 mph - N/A   Unknown
10:56 PM 44.1 °F 39.5 °F 25.0 °F 47% 30.04 in - SE 8.1 mph - N/A   Unknown
11:56 PM 42.1 °F 37.7 °F 25.0 °F 51% 30.02 in - ESE 6.9 mph - N/A   Unknown